Tracking 18630 objects as of 25-May-2017
HD Live streaming from Space Station
objects crossing your sky now

COSMOS 1546

Track COSMOS 1546 now!
COSMOS 1546 is classified as:


NORAD ID: 14867
Int'l Code: 1984-031A
Perigee: 35,687.4 km
Apogee: 35,896.3 km
Inclination: 14.1 °
Period: 1,436.0 minutes
Semi major axis: 42162 km
RCS: 0.14 m2 (medium)
Launch date: March 29, 1984
Source: Commonwealth of Independent States (former USSR) (CIS)
Launch site: TYURATAM MISSILE AND SPACE COMPLEX (TTMTR)
Your satellite tracking list
Your tracking list is empty





NASA's NSSDC Master Catalog

Two Line Element Set (TLE):
1 14867U 84031A   17144.57614722 -.00000174 +00000-0 +00000-0 0  9996
2 14867 014.1410 341.5486 0024764 290.8158 258.3093 01.00278507084727
Source of the keplerian elements: AFSPC